1495681201.03,53808,13.5,73386.0,-1.85,-2.35,-2.39,0,*56
1495681202.22,53809,13.5,73382.0,-1.85,-2.35,-2.35,0,*5B
1495681203.41,53810,13.5,73376.5,-1.85,-2.35,-2.27,0,*50
1495681204.6,53811,13.5,73380.3,-1.85,-2.39,-2.39,0,*52
1495681205.79,53812,13.5,73390.8,-1.85,-2.39,-2.39,0,*51
1495681206.98,53813,13.5,73386.8,-1.85,-2.39,-2.39,0,*50
1495681208.16,53814,13.5,73384.0,-1.85,-2.39,-2.39,0,*57
1495681209.36,53815,13.5,73382.3,-1.85,-2.35,-2.35,0,*56
1495681210.54,53816,13.5,73386.5,-1.85,-2.35,-2.27,0,*56
1495681211.73,53817,13.5,73386.3,-1.85,-2.27,-2.39,0,*5B
1495681212.98,53818,13.5,73384.3,-1.85,-2.47,-2.47,0,*5B
1495681214.21,53819,13.5,73388.3,-1.85,-2.47,-2.39,0,*53
1495681215.45,53820,13.5,73382.3,-1.85,-2.47,-2.47,0,*50
1495681216.7,53821,13.5,73386.5,-1.87,-2.47,-2.35,0,*56
1495681217.95,53822,13.5,73384.0,-1.85,-2.47,-2.51,0,*55
1495681219.17,53823,13.5,73390.3,-1.85,-2.39,-2.47,0,*5A
1495681220.38,53824,13.5,73384.8,-1.87,-2.27,-2.27,0,*56
1495681221.59,53825,13.5,73380.3,-1.87,-2.39,-2.39,0,*57
1495681222.81,53826,13.5,73386.0,-1.87,-2.35,-2.39,0,*58
1495681224.0,53827,13.5,73382.3,-1.89,-2.43,-2.43,0,*5B
1495681225.21,53828,13.5,73378.5,-1.87,-2.35,-2.35,0,*5A
1495681226.43,53829,13.5,73376.5,-1.87,-2.35,-2.35,0,*5B
1495681227.62,53830,13.5,73382.3,-1.85,-2.35,-2.35,0,*51
1495681228.81,53831,13.5,73384.8,-1.85,-2.39,-2.39,0,*50
1495681230.02,53832,13.5,73380.5,-1.85,-2.39,-2.47,0,*5A
1495681231.21,53833,13.5,73380.8,-1.85,-2.39,-2.39,0,*52
1495681232.4,53834,13.5,73384.5,-1.85,-2.35,-2.39,0,*59
1495681233.63,53835,13.5,73382.3,-1.83,-2.31,-2.31,0,*52
1495681234.85,53836,13.5,73380.0,-1.85,-2.39,-2.47,0,*5E
1495681236.1,53837,13.5,73378.8,-1.85,-2.47,-2.51,0,*51
1495681237.37,53838,13.5,73380.8,-1.87,-2.47,-2.47,0,*5B
1495681238.62,53839,13.5,73378.0,-1.85,-2.51,-2.51,0,*58
1495681239.87,53840,13.5,73380.5,-1.85,-2.47,-2.47,0,*56
1495681241.15,53841,13.5,73382.0,-1.87,-2.47,-2.51,0,*52
1495681242.41,53842,13.5,73380.8,-1.87,-2.59,-2.63,0,*5F
1495681243.69,53843,13.5,73382.0,-1.87,-2.47,-2.51,0,*50
1495681244.96,53844,13.5,73382.3,-1.87,-2.59,-2.51,0,*58
1495681246.23,53845,13.5,73376.8,-1.87,-2.63,-2.63,0,*51
1495681247.5,53846,13.5,73376.3,-1.87,-2.59,-2.59,0,*52
1495681248.76,53847,13.5,73376.3,-1.87,-2.59,-2.59,0,*53
1495681250.03,53848,13.5,73382.3,-1.87,-2.63,-2.59,0,*55
1495681251.3,53849,13.5,73378.0,-1.87,-2.51,-2.59,0,*55
1495681252.55,53850,13.5,73376.0,-1.89,-2.63,-2.67,0,*5F
1495681253.8,53851,13.5,73374.5,-1.89,-2.63,-2.63,0,*5A
1495681255.05,53852,13.5,73376.0,-1.89,-2.63,-2.63,0,*59
1495681256.31,53853,13.5,73380.8,-1.87,-2.59,-2.59,0,*56
1495681257.56,53854,13.5,73378.0,-1.89,-2.63,-2.63,0,*5F
1495681258.83,53855,13.5,73380.5,-1.87,-2.51,-2.59,0,*58
1495681260.08,53856,13.5,73380.5,-1.89,-2.67,-2.63,0,*59
1495681261.34,53857,13.5,73380.5,-1.87,-2.59,-2.59,0,*52
1495681262.59,53858,13.5,73380.3,-1.89,-2.63,-2.67,0,*57
1495681263.84,53859,13.5,73378.8,-1.89,-2.63,-2.63,0,*52
1495681265.09,53860,13.5,73378.0,-1.89,-2.51,-2.51,0,*58
1495681266.34,53861,13.5,73382.8,-1.89,-2.51,-2.55,0,*5D
1495681267.61,53862,13.5,73382.3,-1.87,-2.51,-2.51,0,*54
1495681268.86,53863,13.5,73380.3,-1.89,-2.51,-2.51,0,*5B
1495681270.11,53864,13.5,73380.3,-1.89,-2.51,-2.55,0,*58
1495681271.35,53865,13.5,73378.0,-1.89,-2.67,-2.67,0,*5D
1495681272.6,53866,13.5,73382.3,-1.89,-2.63,-2.63,0,*5E
1495681273.85,53867,13.5,73376.8,-1.89,-2.63,-2.55,0,*5A
1495681275.12,53868,13.5,73380.0,-1.87,-2.51,-2.51,0,*5E
1495681276.37,53869,13.5,73382.5,-1.89,-2.51,-2.55,0,*55
1495681277.62,53870,13.5,73386.3,-1.89,-2.55,-2.55,0,*59
1495681278.86,53871,13.5,73380.5,-1.89,-2.55,-2.55,0,*58
1495681280.11,53872,13.5,73382.8,-1.89,-2.51,-2.55,0,*5F
1495681281.38,53873,13.5,73386.5,-1.91,-2.59,-2.59,0,*53
1495681282.65,53874,13.5,73382.0,-1.91,-2.55,-2.59,0,*58
1495681283.92,53875,13.5,73368.8,-1.91,-2.55,-2.47,0,*56
1495681285.11,53876,13.5,73370.8,-1.89,-2.43,-2.43,0,*5F
1495681286.36,53877,13.5,73378.3,-1.89,-2.51,-2.51,0,*5E
1495681287.63,53878,13.5,73380.0,-1.91,-2.59,-2.59,0,*58
1495681288.84,53879,13.5,73390.3,-1.89,-2.55,-2.43,0,*57
1495681290.03,53880,13.5,73384.3,-1.89,-2.43,-2.39,0,*5B
1495681291.25,53881,13.5,73378.8,-1.89,-2.51,-2.43,0,*54
1495681292.5,53882,13.5,73380.8,-1.89,-2.51,-2.47,0,*53
1495681293.74,53883,13.5,73380.0,-1.89,-2.55,-2.55,0,*55
1495681295.0,53884,13.5,73376.0,-1.89,-2.63,-2.51,0,*53
1495681296.24,53885,13.5,73374.5,-1.89,-2.67,-2.63,0,*57
1495681297.49,53886,13.5,73378.5,-1.89,-2.63,-2.63,0,*50
1495681298.74,53887,13.5,73394.5,-1.89,-2.67,-2.67,0,*51
1495681299.99,53888,13.5,73382.5,-1.89,-2.63,-2.55,0,*5B
1495681301.24,53889,13.5,73380.8,-1.89,-2.63,-2.63,0,*5F
1495681302.51,53890,13.5,73370.3,-1.91,-2.67,-2.67,0,*5E
1495681303.78,53891,13.5,73384.5,-1.91,-2.71,-2.71,0,*5F
1495681305.06,53892,13.5,73392.5,-1.91,-2.71,-2.71,0,*5C
1495681306.33,53893,13.5,73380.3,-1.91,-2.71,-2.71,0,*5D
1495681307.58,53894,13.5,73384.3,-1.93,-2.71,-2.71,0,*58
1495681308.85,53895,13.5,73382.8,-1.91,-2.67,-2.67,0,*5B
1495681310.1,53896,13.5,73376.5,-1.93,-2.67,-2.67,0,*5A
1495681311.37,53897,13.5,73376.5,-1.91,-2.67,-2.67,0,*59
1495681312.64,53898,13.5,73388.3,-1.91,-2.71,-2.71,0,*56
1495681313.91,53899,13.5,73380.3,-1.91,-2.67,-2.71,0,*50
1495681315.16,53900,13.5,73376.3,-1.91,-2.47,-2.43,0,*52
1495681316.43,53901,13.5,73372.3,-1.91,-2.55,-2.59,0,*5B
1495681317.67,53902,13.5,73374.5,-1.93,-2.59,-2.59,0,*56
1495681318.91,53903,13.5,73368.5,-1.93,-2.59,-2.59,0,*57
1495681320.18,53904,13.5,73388.8,-1.91,-2.67,-2.71,0,*55
1495681321.45,53905,13.5,73390.0,-1.91,-2.67,-2.67,0,*53
1495681322.72,53906,13.5,73380.0,-1.91,-2.59,-2.67,0,*5D
1495681323.99,53907,13.5,73380.5,-1.91,-2.67,-2.71,0,*56
1495681325.26,53908,13.5,73380.5,-1.91,-2.67,-2.59,0,*53
1495681326.53,53909,13.5,73380.0,-1.91,-2.67,-2.55,0,*5E
1495681327.8,53910,13.5,73382.3,-1.91,-2.67,-2.67,0,*57
1495681329.08,53911,13.5,73382.5,-1.91,-2.71,-2.71,0,*56
1495681330.35,53912,13.5,73380.5,-1.91,-2.67,-2.67,0,*55
1495681331.62,53913,13.5,73386.5,-1.91,-2.67,-2.67,0,*54
1495681332.89,53914,13.5,73380.8,-1.91,-2.67,-2.59,0,*5E
1495681334.15,53915,13.5,73382.0,-1.91,-2.59,-2.59,0,*52
1495681335.4,53916,13.5,73384.3,-1.91,-2.55,-2.43,0,*56
1495681336.62,53917,13.5,73382.8,-1.91,-2.31,-2.23,0,*53
1495681337.87,53918,13.5,73386.5,-1.93,-2.47,-2.47,0,*5D
1495681339.12,53919,13.56,73390.8,-1.93,-2.55,-2.47,0,*5F
1495681340.33,53920,13.5,73384.8,-1.91,-2.43,-2.43,0,*54
1495681341.55,53921,13.5,73380.8,-1.93,-2.43,-2.55,0,*50
1495681342.8,53922,13.5,73384.0,-1.91,-2.43,-2.47,0,*52
1495681344.06,53923,13.5,73378.3,-1.91,-2.59,-2.59,0,*57
1495681345.34,53924,13.5,73374.8,-1.91,-2.55,-2.55,0,*50
1495681346.56,53925,13.5,73382.3,-1.91,-2.43,-2.35,0,*50
1495681347.8,53926,13.5,73386.8,-1.91,-2.47,-2.43,0,*56
1495681349.05,53927,13.5,73380.3,-1.91,-2.47,-2.43,0,*57
1495681350.32,53928,13.5,73378.5,-1.91,-2.59,-2.55,0,*50
1495681351.59,53929,13.5,73382.0,-1.91,-2.55,-2.47,0,*5E
1495681352.86,53930,13.5,73382.0,-1.91,-2.59,-2.59,0,*55
1495681354.13,53931,13.5,73380.8,-1.91,-2.55,-2.55,0,*54
1495681355.4,53932,13.5,73378.8,-1.91,-2.59,-2.55,0,*5B
1495681356.68,53933,13.5,73382.5,-1.91,-2.55,-2.55,0,*56
1495681357.92,53934,13.5,73386.5,-1.91,-2.47,-2.43,0,*55
1495681359.2,53935,13.5,73374.8,-1.91,-2.55,-2.55,0,*50
1495681360.47,53936,13.5,73378.3,-1.91,-2.59,-2.55,0,*5F
1495681361.73,53937,13.5,73378.0,-1.91,-2.67,-2.59,0,*5F
1495681363.0,53938,13.5,73376.3,-1.91,-2.59,-2.59,0,*5D
1495681364.28,53939,13.5,73384.3,-1.91,-2.47,-2.47,0,*5C
1495681365.55,53940,13.5,73376.3,-1.91,-2.47,-2.47,0,*52
1495681366.77,53941,13.5,73374.0,-1.91,-2.35,-2.43,0,*52
1495681368.02,53942,13.5,73376.0,-1.91,-2.47,-2.43,0,*54
1495681369.27,53943,13.5,73388.0,-1.89,-2.51,-2.51,0,*58
1495681370.48,53944,13.5,73382.0,-1.89,-2.51,-2.43,0,*5C
1495681371.7,53945,13.5,73376.0,-1.91,-2.43,-2.35,0,*56
1495681372.92,53946,13.5,73382.5,-1.91,-2.31,-2.35,0,*50
1495681374.2,53947,13.5,73380.0,-1.91,-2.47,-2.47,0,*55
1495681375.48,53948,13.5,73382.3,-1.91,-2.47,-2.47,0,*5A
1495681376.75,53949,13.5,73382.0,-1.91,-1.91,-1.91,0,*5B
1495681377.97,53950,13.5,73382.8,-1.89,-2.11,-2.15,0,*5E
1495681379.19,53951,13.5,73380.5,-1.89,-2.15,-2.07,0,*58
1495681380.39,53952,13.5,73382.5,-1.89,-2.43,-2.31,0,*5D
1495681381.58,53953,13.5,73370.8,-1.89,-2.43,-2.43,0,*59
1495681382.83,53954,13.5,73366.8,-1.89,-2.55,-2.51,0,*5A
1495681384.08,53955,13.5,73374.3,-1.89,-2.63,-2.67,0,*5B
1495681385.33,53956,13.5,73376.0,-1.89,-2.63,-2.63,0,*5C
1495681386.58,53957,13.5,73378.3,-1.89,-2.63,-2.63,0,*5D
1495681387.85,53958,13.5,73378.8,-1.87,-2.47,-2.47,0,*5C
1495681389.07,53959,13.5,73380.5,-1.89,-2.51,-2.39,0,*5D
1495681390.26,53960,13.5,73384.8,-1.89,-2.43,-2.39,0,*54
1495681391.45,53961,13.5,73370.0,-1.89,-2.39,-2.43,0,*55
1495681392.7,53962,13.5,73372.0,-1.89,-2.51,-2.55,0,*5F
1495681393.95,53963,13.5,73372.0,-1.89,-2.55,-2.51,0,*5E
1495681395.19,53964,13.5,73376.8,-1.89,-2.55,-2.55,0,*5D
1495681396.38,53965,13.5,73378.0,-1.89,-2.19,-2.27,0,*51
1495681397.57,53966,13.5,73376.8,-1.89,-2.27,-2.31,0,*58
1495681398.76,53967,13.5,73378.8,-1.89,-2.39,-2.43,0,*53
1495681399.98,53968,13.5,73384.3,-1.87,-2.23,-2.15,0,*5A
1495681401.17,53969,13.5,73376.0,-1.89,-2.19,-2.19,0,*50
1495681402.38,53970,13.5,73374.8,-1.87,-2.23,-2.15,0,*53
1495681403.59,53971,13.5,73376.3,-1.87,-2.27,-2.27,0,*57
1495681404.78,53972,13.5,73384.3,-1.89,-2.27,-2.27,0,*5A
1495681406.0,53973,13.5,73386.0,-1.87,-2.23,-2.23,0,*55
1495681407.21,53974,13.5,73380.5,-1.87,-2.23,-2.27,0,*56
1495681408.42,53975,13.5,73372.8,-1.87,-2.39,-2.35,0,*5F
1495681409.64,53976,13.5,73380.0,-1.87,-2.39,-2.35,0,*5C
1495681410.85,53977,13.5,73386.5,-1.87,-2.35,-2.35,0,*51
1495681412.09,53978,13.5,73384.0,-1.87,-2.27,-2.11,0,*5B
1495681413.36,53979,13.5,73374.5,-1.87,-2.11,-2.11,0,*5F
1495681414.56,53980,13.5,73382.0,-1.89,-2.31,-2.27,0,*50
1495681415.75,53981,13.5,73376.3,-1.85,-2.35,-2.35,0,*5A
1495681416.94,53982,13.5,73380.0,-1.85,-2.35,-2.35,0,*59
1495681418.13,53983,13.5,73380.8,-1.85,-2.39,-2.35,0,*54
1495681419.32,53984,13.5,73388.5,-1.85,-2.39,-2.35,0,*53
1495681420.51,53985,13.5,73384.8,-1.85,-2.35,-2.35,0,*5E
1495681421.7,53986,13.5,73380.0,-1.85,-2.35,-2.27,0,*5E
1495681422.88,53987,13.5,73376.5,-1.85,-2.39,-2.35,0,*50
1495681424.07,53988,13.5,73380.8,-1.85,-2.35,-2.27,0,*50
1495681425.26,53989,13.5,73380.5,-1.85,-2.35,-2.27,0,*51
1495681426.48,53990,13.5,73386.3,-1.83,-2.23,-2.23,0,*5C
1495681427.67,53991,13.5,73386.3,-1.85,-2.27,-2.27,0,*5B
1495681428.89,53992,13.5,73384.8,-1.83,-2.19,-2.23,0,*57
1495681430.08,53993,13.5,73380.3,-1.85,-2.23,-2.19,0,*50
1495681431.27,53994,13.5,73380.5,-1.85,-2.19,-2.19,0,*5E
1495681432.46,53995,13.5,73386.5,-1.85,-2.27,-2.27,0,*5F
1495681433.65,53996,13.5,73384.5,-1.85,-2.27,-2.23,0,*58
1495681434.84,53997,13.5,73390.3,-1.85,-2.27,-2.27,0,*5D
1495681436.12,53998,13.5,73386.3,-1.83,-2.11,-2.11,0,*54
1495681437.31,53999,13.5,73382.5,-1.85,-2.27,-2.23,0,*57
1495681438.54,54000,13.5,73382.0,-1.83,-2.19,-2.23,0,*52
1495681439.76,54001,13.5,73382.5,-1.83,-2.23,-2.23,0,*5A
1495681440.99,54002,13.5,73378.8,-1.83,-2.31,-2.31,0,*59
1495681442.18,54003,13.5,73378.3,-1.85,-2.35,-2.35,0,*5E
1495681443.37,54004,13.5,73382.3,-1.85,-2.35,-2.35,0,*59
1495681444.59,54005,13.5,73386.3,-1.83,-2.35,-2.35,0,*5E
1495681445.82,54006,13.5,73380.3,-1.83,-2.31,-2.35,0,*59
1495681447.01,54007,13.5,73380.0,-1.85,-2.35,-2.35,0,*5A
1495681448.2,54008,13.5,73388.8,-1.85,-2.39,-2.39,0,*55
1495681449.42,54009,13.5,73382.0,-1.83,-2.31,-2.35,0,*56
1495681450.67,54010,13.5,73386.3,-1.83,-2.35,-2.47,0,*5F
1495681451.92,54011,13.5,73380.3,-1.83,-2.47,-2.43,0,*5F
1495681453.14,54012,13.5,73378.3,-1.83,-2.35,-2.35,0,*58
1495681454.37,54013,13.5,73382.5,-1.83,-2.31,-2.31,0,*59
1495681455.6,54014,13.5,73392.8,-1.83,-2.31,-2.31,0,*5E
1495681456.82,54015,13.5,73392.8,-1.83,-2.23,-2.31,0,*5C
1495681458.02,54016,13.5,73386.3,-1.81,-2.23,-2.23,0,*5E
1495681459.24,54017,13.5,73374.8,-1.83,-2.35,-2.31,0,*59
1495681460.49,54018,13.5,73382.0,-1.83,-2.47,-2.43,0,*56
1495681461.77,54019,13.5,73382.8,-1.83,-2.55,-2.55,0,*53
1495681462.98,54020,13.5,73380.5,-1.81,-2.55,-2.43,0,*5C
1495681464.23,54021,13.5,73380.5,-1.85,-2.51,-2.47,0,*59
1495681465.48,54022,13.5,73380.0,-1.85,-2.47,-2.51,0,*5A
1495681466.7,54023,13.5,73380.5,-1.83,-2.43,-2.43,0,*5A
1495681467.92,54024,13.5,73384.5,-1.83,-2.43,-2.43,0,*5D
1495681469.13,54025,13.5,73382.8,-1.83,-2.43,-2.43,0,*5C
1495681470.35,54026,13.5,73384.0,-1.83,-2.43,-2.35,0,*5E
1495681471.58,54027,13.5,73388.3,-1.83,-2.23,-2.31,0,*5D
1495681472.8,54028,13.5,73382.5,-1.83,-2.23,-2.23,0,*51
1495681474.03,54029,13.5,73386.3,-1.83,-2.31,-2.31,0,*50
1495681475.27,54030,13.5,73392.0,-1.85,-2.59,-2.63,0,*57
1495681476.49,54031,13.5,73398.5,-1.83,-2.43,-2.43,0,*59
1495681477.68,54032,13.5,73380.5,-1.85,-2.35,-2.35,0,*5C
1495681478.93,54033,13.5,73384.5,-1.83,-2.47,-2.43,0,*5F
1495681480.2,54034,13.5,73382.5,-1.83,-2.59,-2.55,0,*50
1495681481.45,54035,13.5,73388.0,-1.83,-2.55,-2.43,0,*5A
1495681482.7,54036,13.5,73380.8,-1.83,-2.55,-2.43,0,*59
1495681483.94,54037,13.5,73386.8,-1.85,-2.51,-2.51,0,*59
1495681485.16,54038,13.5,73386.5,-1.83,-2.43,-2.43,0,*50
1495681486.38,54039,13.5,73386.0,-1.85,-2.47,-2.39,0,*5E
1495681487.63,54040,13.5,73382.0,-1.85,-2.47,-2.47,0,*59
1495681488.91,54041,13.5,73384.3,-1.83,-2.47,-2.47,0,*5E
1495681490.14,54042,13.5,73384.3,-1.83,-2.31,-2.35,0,*59
1495681491.36,54043,13.5,73384.8,-1.83,-2.43,-2.31,0,*59
1495681492.59,54044,13.5,73380.3,-1.83,-2.31,-2.31,0,*5B
1495681493.81,54045,13.5,73380.0,-1.83,-2.35,-2.35,0,*5A
1495681495.03,54046,13.5,73384.0,-1.83,-2.43,-2.43,0,*59
1495681496.27,54047,13.5,73382.5,-1.85,-2.51,-2.59,0,*56
1495681497.49,54048,13.5,73384.8,-1.85,-2.47,-2.39,0,*58
1495681498.68,54049,13.5,73386.5,-1.85,-2.35,-2.27,0,*53
1495681499.91,54050,13.5,73384.8,-1.83,-2.31,-2.23,0,*5D
1495681501.13,54051,13.5,73384.0,-1.83,-2.35,-2.43,0,*5E
1495681502.37,54052,13.5,73386.0,-1.85,-2.51,-2.47,0,*5D
1495681503.6,54053,13.5,73386.5,-1.83,-2.23,-2.23,0,*5D
1495681504.82,54054,13.5,73386.5,-1.83,-2.23,-2.19,0,*53
1495681506.04,54055,13.5,73384.0,-1.83,-2.31,-2.35,0,*5F
1495681507.26,54056,13.5,73384.3,-1.83,-2.43,-2.43,0,*58
1495681508.45,54057,13.5,73390.0,-1.85,-2.43,-2.31,0,*5A
1495681509.68,54058,13.5,73388.3,-1.85,-2.47,-2.39,0,*59
1495681510.92,54059,13.5,73388.3,-1.85,-2.51,-2.47,0,*56
1495681512.17,54060,13.5,73394.3,-1.83,-2.43,-2.47,0,*59
1495681513.41,54061,13.5,73392.0,-1.85,-2.59,-2.47,0,*55
1495681514.69,54062,13.5,73390.0,-1.83,-2.55,-2.55,0,*5F
1495681515.96,54063,13.5,73384.5,-1.83,-2.55,-2.55,0,*5E
1495681517.2,54064,13.5,73382.3,-1.85,-2.59,-2.59,0,*5F
1495681518.45,54065,13.5,73384.8,-1.85,-2.55,-2.63,0,*5B
1495681519.73,54066,13.5,73388.3,-1.83,-2.55,-2.55,0,*5B
1495681520.97,54067,13.5,73390.8,-1.85,-2.51,-2.51,0,*5C
1495681522.22,54068,13.5,73384.0,-1.85,-2.47,-2.59,0,*5C
1495681523.41,54069,13.5,73384.5,-1.85,-2.35,-2.35,0,*52
1495681524.66,54070,13.5,73388.8,-1.83,-2.47,-2.43,0,*58
1495681525.88,54071,13.5,73388.3,-1.83,-2.35,-2.31,0,*59
1495681527.07,54072,13.5,73384.3,-1.85,-2.39,-2.39,0,*58
1495681528.35,54073,13.5,73390.0,-1.83,-2.47,-2.47,0,*5F
1495681529.54,54074,13.5,73390.8,-1.85,-2.35,-2.39,0,*52
1495681530.73,54075,13.5,73386.8,-1.85,-2.39,-2.39,0,*5F
1495681531.98,54076,13.5,73394.3,-1.85,-2.51,-2.51,0,*5C
1495681533.26,54077,13.5,73394.5,-1.83,-2.55,-2.63,0,*5E
1495681534.5,54078,13.5,73392.8,-1.85,-2.59,-2.63,0,*5B
1495681535.77,54079,13.5,73394.8,-1.83,-2.59,-2.59,0,*55
1495681537.01,54080,13.5,73390.8,-1.85,-2.51,-2.59,0,*5D
1495681538.25,54081,13.5,73392.3,-1.85,-2.59,-2.59,0,*54
1495681539.49,54082,13.5,73390.8,-1.85,-2.59,-2.63,0,*5E
1495681540.77,54083,13.5,73394.3,-1.83,-2.55,-2.47,0,*53
1495681541.96,54084,13.5,73394.5,-1.85,-2.35,-2.39,0,*5D
1495681543.21,54085,13.5,73392.3,-1.85,-2.59,-2.51,0,*58
1495681544.4,54086,13.5,73392.0,-1.85,-2.15,-2.15,0,*53
1495681545.59,54087,13.5,73392.0,-1.85,-2.27,-2.27,0,*52
1495681546.78,54088,13.5,73394.8,-1.85,-2.27,-2.35,0,*5E
1495681548.0,54089,13.5,73390.8,-1.85,-2.47,-2.39,0,*55
1495681549.22,54090,13.5,73394.0,-1.83,-2.43,-2.35,0,*53
1495681550.47,54091,13.5,73392.5,-1.85,-2.47,-2.47,0,*55
1495681551.72,54092,13.5,73390.0,-1.85,-2.47,-2.47,0,*56
1495681552.97,54093,13.5,73386.0,-1.85,-2.51,-2.51,0,*57
1495681554.21,54094,13.5,73392.0,-1.83,-2.47,-2.43,0,*52
1495681555.46,54095,13.5,73388.5,-1.83,-2.35,-2.47,0,*52
1495681556.65,54096,13.5,73386.0,-1.85,-2.39,-2.35,0,*5E
1495681557.87,54097,13.5,73394.3,-1.85,-2.39,-2.47,0,*5A
1495681559.09,54098,13.5,73394.3,-1.85,-2.39,-2.47,0,*55
1495681560.31,54099,13.5,73388.8,-1.83,-2.35,-2.35,0,*5B
1495681561.53,54100,13.5,73394.3,-1.85,-2.47,-2.39,0,*55
1495681562.75,54101,13.5,73388.5,-1.83,-2.35,-2.35,0,*5B
1495681563.97,54102,13.5,73390.8,-1.85,-2.47,-2.35,0,*5B
1495681565.19,54103,13.5,73394.0,-1.83,-2.35,-2.35,0,*59
1495681566.39,54104,13.5,73392.0,-1.85,-2.35,-2.35,0,*58
1495681567.58,54105,13.5,73388.8,-1.85,-2.35,-2.35,0,*59
1495681568.8,54106,13.5,73386.0,-1.83,-2.31,-2.35,0,*58
1495681570.03,54107,13.5,73386.8,-1.83,-2.23,-2.23,0,*5D
1495681571.21,54108,13.5,73386.0,-1.85,-2.39,-2.35,0,*58
1495681572.43,54109,13.5,73382.0,-1.83,-2.35,-2.43,0,*52
1495681573.63,54110,13.5,73388.5,-1.85,-2.35,-2.31,0,*59
1495681574.89,54111,13.5,73388.0,-1.83,-1.95,-1.95,0,*5A
1495681576.17,54112,13.5,73382.8,-1.83,-2.11,-2.11,0,*59
1495681577.39,54113,13.5,73386.8,-1.83,-2.35,-2.23,0,*5F
1495681578.62,54114,13.5,73388.5,-1.83,-2.35,-2.31,0,*5B
1495681579.84,54115,13.5,73390.3,-1.83,-2.23,-2.23,0,*5E
1495681581.08,54116,13.5,73388.5,-1.81,-1.95,-1.87,0,*5C
1495681582.3,54117,13.5,73386.8,-1.81,-2.19,-2.07,0,*51
1495681583.5,54118,13.5,73386.8,-1.81,-2.31,-2.23,0,*52
1495681584.7,54119,13.5,73390.3,-1.81,-2.31,-2.31,0,*50
1495681585.89,54120,13.5,73370.0,-1.81,-2.35,-2.19,0,*54
1495681587.09,54121,13.5,73370.8,-1.81,-2.23,-2.23,0,*5B
1495681588.28,54122,13.5,73386.0,-1.81,-2.35,-2.35,0,*58
1495681589.48,54123,13.5,73390.5,-1.81,-2.31,-2.31,0,*59
1495681590.7,54124,13.5,73384.3,-1.83,-2.23,-2.35,0,*5B
1495681591.93,54125,13.5,73384.5,-1.77,-2.15,-2.23,0,*53
1495681593.15,54126,13.5,73384.0,-1.77,-2.15,-2.15,0,*55
1495681594.34,54127,13.5,73390.0,-1.81,-2.19,-2.19,0,*5D
1495681595.56,54128,13.5,73388.3,-1.81,-2.19,-2.11,0,*5A
1495681596.84,54129,13.5,73384.3,-1.77,-1.99,-2.03,0,*5A
1495681598.12,54130,13.5,73384.3,-1.77,-2.11,-2.11,0,*52
1495681599.35,54131,13.5,73384.8,-1.77,-2.15,-2.15,0,*53
1495681600.56,54132,13.5,73382.8,-1.81,-2.19,-2.11,0,*51
1495681601.81,54133,13.5,73386.8,-1.77,-2.19,-2.03,0,*5A
1495681603.1,54134,13.5,73390.5,-1.77,-1.99,-2.03,0,*56
1495681604.38,54135,13.5,73384.0,-1.77,-2.11,-2.11,0,*57
1495681605.66,54136,13.5,73382.8,-1.77,-2.11,-2.11,0,*54
1495681606.91,54137,13.5,73382.0,-1.77,-2.11,-2.15,0,*51
1495681608.2,54138,13.5,73384.0,-1.77,-2.11,-2.03,0,*59
1495681609.48,54139,13.5,73390.8,-1.77,-2.03,-1.99,0,*5B
1495681610.76,54140,13.5,73392.3,-1.77,-2.03,-1.99,0,*55
1495681611.98,54141,13.5,73388.5,-1.75,-1.79,-1.87,0,*57
1495681613.25,54142,13.5,73386.3,-1.73,-1.99,-1.95,0,*5F
1495681614.53,54143,13.5,73380.3,-1.73,-2.07,-2.07,0,*52
1495681615.73,54144,13.5,73386.5,-1.75,-2.15,-2.15,0,*53
1495681616.97,54145,13.5,73392.0,-1.73,-2.19,-2.11,0,*5C
1495681618.25,54146,13.5,73386.3,-1.73,-2.11,-2.11,0,*57
1495681619.46,54147,13.5,73394.0,-1.73,-2.35,-2.43,0,*57
1495681620.71,54148,13.5,73390.8,-1.73,-2.43,-2.47,0,*5D
1495681621.96,54149,13.5,73388.3,-1.75,-2.47,-2.47,0,*5E
1495681623.19,54150,13.5,73398.0,-1.75,-2.47,-2.35,0,*53
1495681624.39,54151,13.5,73396.0,-1.75,-2.39,-2.39,0,*57
1495681625.58,54152,13.5,73394.5,-1.75,-2.39,-2.35,0,*58
1495681626.8,54153,13.5,73390.5,-1.73,-2.35,-2.43,0,*52
1495681628.05,54154,13.5,73392.8,-1.75,-2.51,-2.47,0,*55
1495681629.3,54155,13.5,73386.5,-1.75,-2.51,-2.47,0,*54
1495681630.56,54156,13.5,73390.8,-1.75,-2.47,-2.47,0,*50
1495681631.81,54157,13.5,73390.8,-1.77,-2.39,-2.47,0,*5A
1495681633.06,54158,13.5,73390.0,-1.77,-2.39,-2.47,0,*55
1495681634.28,54159,13.5,73388.0,-1.77,-2.39,-2.35,0,*51
1495681635.54,54160,13.5,73388.3,-1.77,-2.47,-2.39,0,*5E
1495681636.82,54161,13.5,73392.3,-1.77,-2.47,-2.47,0,*56
1495681638.04,54162,13.5,73390.3,-1.77,-2.39,-2.35,0,*59
1495681639.29,54163,13.5,73390.5,-1.77,-2.39,-2.47,0,*5D
1495681640.58,54164,13.5,73388.5,-1.77,-2.47,-2.51,0,*54
1495681641.86,54165,13.5,73394.3,-1.77,-2.51,-2.47,0,*55
1495681643.1,54166,13.5,73390.0,-1.81,-2.55,-2.55,0,*58
1495681644.36,54167,13.5,73392.5,-1.77,-2.47,-2.39,0,*59
1495681645.6,54168,13.5,73388.8,-1.81,-2.55,-2.59,0,*5A
1495681646.84,54169,13.5,73390.0,-1.81,-2.55,-2.55,0,*57
1495681648.07,54170,13.5,73384.3,-1.77,-2.39,-2.35,0,*5A
1495681649.32,54171,13.5,73384.0,-1.77,-2.47,-2.39,0,*5E
1495681650.57,54172,13.5,73394.5,-1.81,-2.55,-2.55,0,*5D
1495681651.81,54173,13.5,73394.5,-1.81,-2.55,-2.55,0,*5C
1495681653.09,54174,13.5,73398.8,-1.77,-2.51,-2.51,0,*52
1495681654.34,54175,13.5,73394.3,-1.81,-2.59,-2.55,0,*56
1495681655.58,54176,13.5,73390.0,-1.81,-2.55,-2.55,0,*59
1495681656.83,54177,13.5,73388.0,-1.81,-2.47,-2.47,0,*58
1495681658.11,54178,13.5,73390.0,-1.77,-2.51,-2.47,0,*59
1495681659.36,54179,13.5,73398.5,-1.81,-2.55,-2.55,0,*56
1495681660.6,54180,13.5,73398.8,-1.81,-2.59,-2.59,0,*50
1495681661.84,54181,13.5,73396.0,-1.81,-2.55,-2.59,0,*5D
1495681663.09,54182,13.5,73400.5,-1.81,-2.47,-2.47,0,*52
1495681664.28,54183,13.5,73400.5,-1.81,-2.43,-2.35,0,*52
1495681665.48,54184,13.5,73394.0,-1.81,-2.43,-2.35,0,*55
1495681666.66,54185,13.5,73396.8,-1.81,-2.43,-2.43,0,*55
1495681667.86,54186,13.5,73396.3,-1.81,-2.35,-2.35,0,*56
1495681669.11,54187,13.5,73396.8,-1.81,-2.47,-2.47,0,*57
1495681670.32,54188,13.5,73394.8,-1.81,-2.43,-2.47,0,*5C
1495681671.51,54189,13.5,73392.5,-1.81,-2.39,-2.39,0,*59
1495681672.73,54190,13.5,73396.0,-1.77,-2.27,-2.27,0,*58
1495681673.93,54191,13.5,73402.0,-1.81,-2.35,-2.35,0,*50
1495681675.15,54192,13.5,73398.0,-1.77,-2.39,-2.39,0,*5A
1495681676.34,54193,13.5,73400.0,-1.81,-2.43,-2.43,0,*52
1495681677.53,54194,13.5,73402.5,-1.81,-2.43,-2.35,0,*54
1495681678.75,54195,13.5,73398.8,-1.77,-2.35,-2.27,0,*5E
1495681679.98,54196,13.5,73394.3,-1.77,-2.23,-2.23,0,*5E
1495681681.16,54197,13.5,73394.3,-1.81,-2.23,-2.27,0,*52
1495681682.36,54198,13.5,73392.5,-1.81,-2.35,-2.31,0,*5D
1495681683.58,54199,13.5,73398.3,-1.81,-2.47,-2.35,0,*5D
1495681684.81,54200,13.5,73396.0,-1.77,-2.35,-2.23,0,*55
1495681686.08,54201,13.5,73400.8,-1.77,-1.91,-1.91,0,*53
1495681687.36,54202,13.5,73402.3,-1.77,-1.91,-1.91,0,*50
1495681688.64,54203,13.5,73398.8,-1.77,-2.11,-1.99,0,*52
1495681689.9,54204,13.5,73400.0,-1.75,-2.03,-1.99,0,*54
1495681691.16,54205,13.5,73400.3,-1.75,-1.99,-1.99,0,*55
1495681692.41,54206,13.5,73394.0,-1.75,-2.03,-2.03,0,*56
1495681693.64,54207,13.5,73392.0,-1.75,-2.11,-2.15,0,*53
1495681694.89,54208,13.5,73396.8,-1.75,-2.11,-2.11,0,*58
1495681696.12,54209,13.5,73394.0,-1.75,-2.15,-2.11,0,*5D
1495681697.34,54210,13.5,73396.8,-1.75,-2.15,-2.11,0,*55
1495681698.54,54211,13.5,73398.0,-1.75,-2.27,-2.15,0,*51
1495681699.81,54212,13.5,73402.0,-1.73,-2.11,-2.11,0,*55
1495681701.06,54213,13.5,73398.5,-1.73,-2.19,-2.11,0,*5C
1495681702.26,54214,13.5,73398.0,-1.75,-2.15,-2.15,0,*55
1495681703.46,54215,13.5,73396.3,-1.75,-2.23,-2.23,0,*54
1495681704.65,54216,13.5,73398.8,-1.75,-2.27,-2.27,0,*57
1495681705.84,54217,13.5,73392.5,-1.75,-2.27,-2.27,0,*56
1495681707.04,54218,13.5,73400.3,-1.75,-2.27,-2.27,0,*59
1495681708.26,54219,13.5,73396.8,-1.73,-2.23,-2.23,0,*5E
1495681709.48,54220,13.5,73396.3,-1.73,-2.31,-2.19,0,*5E
1495681710.7,54221,13.5,73394.0,-1.73,-2.35,-2.35,0,*55
1495681711.95,54222,13.5,73394.3,-1.73,-2.47,-2.35,0,*53
1495681713.14,54223,13.5,73392.5,-1.75,-2.39,-2.35,0,*5D
1495681714.42,54224,13.5,73396.3,-1.73,-2.47,-2.47,0,*50
1495681715.67,54225,13.5,73400.3,-1.73,-2.47,-2.43,0,*55
1495681716.92,54226,13.5,73396.8,-1.75,-2.51,-2.51,0,*54
1495681718.17,54227,13.5,73396.0,-1.75,-2.55,-2.55,0,*55
1495681719.42,54228,13.5,73396.5,-1.75,-2.55,-2.55,0,*5A